Location: Praha
(50.0830°N, 14.4670°E)
Time: 13:32:23
(UTC+02:00)

ISS - Pass Details

Date: 17 September 2021
Orbit: 419 x 423 km, 51.6° (Epoch: 21 September)

Event Time Altitude Azimuth Distance (km) Brightness Sun altitude
Rises 21:37:50 0° 243° (WSW) 2,359 0.4 -22.9°
Reaches altitude 10° 21:39:56 10° 240° (WSW) 1,498 -0.7 -23.2°
Enters shadow 21:41:04 20° 237° (WSW) 1,048 -1.6 -23.3°
